Weather History for LTCE - October, 2013

Change the Weather History Date:

Sunday, October 6, 2013

  Actual Average (WUND) Record (WUND)
Temperature  
Mean Temperature 34 °F -  
Max Temperature 39 °F 55 °F - (-1)
Min Temperature 30 °F 34 °F - (-1)
Degree Days  
Heating Degree Days 30    
Moisture  
Dew Point 30 °F    
Average Humidity 83    
Maximum Humidity 100    
Minimum Humidity 61    
Precipitation  
Precipitation 0.04 in 0.06 in - ()
Sea Level Pressure  
Sea Level Pressure 30.02 in    
Wind  
Wind Speed 11 mph ()    
Max Wind Speed 18 mph    
Max Gust Speed -    
Visibility 5.9 miles    
Events Snow    
Averages and records for this station are not official NWS values.
T = Trace of Precipitation, MM = Missing Value Source: Averaged Metar Reports

Daily Weather History Graph

Daily Weather History Graph

Search for Another Location

Airport or City:

Trip Planner

Search our weather history database for the weather conditions in past years. The results will help you decide how hot, cold, wet, or windy it might be!

Date:

Astronomy

Oct. 06, 2013 Rise Set
Actual Time 6:16 AM EEST 5:49 PM EEST
Civil Twilight 5:49 AM EEST 6:16 PM EEST
Nautical Twilight 5:18 AM EEST 6:48 PM EEST
Astronomical Twilight 4:46 AM EEST 7:19 PM EEST
Moon 7:37 AM EEST (10/6) 6:34 PM EEST (10/6)
Length of Visible Light 12h 27m
Length of Day
11h 33m
New Moon, 2% of the Moon is Illuminated
Oct 6
New Moon
Oct 12
First Quarter
Oct 19
Full
Oct 27
Last Quarter
Nov 3
New

Hourly Weather History & Observations

Time (EEST) Temp. Windchill Dew Point Humidity Pressure Visibility Wind Dir Wind Speed Gust Speed Precip Events Conditions
12:50 AM 37.4 °F 28.5 °F 30.2 °F 75% 29.98 in 6.2 mi ENE 15.0 mph - N/A   Mostly Cloudy
1:20 AM 37.4 °F 28.5 °F 30.2 °F 75% 29.98 in 6.2 mi ENE 15.0 mph - N/A   Mostly Cloudy
1:50 AM 37.4 °F 28.9 °F 30.2 °F 75% 29.98 in 6.2 mi ENE 13.8 mph - N/A   Mostly Cloudy
2:20 AM 37.4 °F 28.5 °F 30.2 °F 75% 29.98 in 6.2 mi ENE 15.0 mph - N/A   Mostly Cloudy
2:50 AM 37.4 °F 28.2 °F 28.4 °F 70% 29.98 in 6.2 mi ENE 16.1 mph - N/A   Mostly Cloudy
3:00 AM 37 °F - 29 °F 64%  in 12 mi ENE 16.1 mph - -   Partly Cloudy
3:20 AM 37.4 °F 28.9 °F 28.4 °F 70% 29.95 in 6.2 mi ENE 13.8 mph - N/A   Mostly Cloudy
3:50 AM 35.6 °F 26.2 °F 28.4 °F 75% 29.95 in 6.2 mi ENE 15.0 mph - N/A   Mostly Cloudy
4:50 AM 35.6 °F 25.9 °F 28.4 °F 75% 29.95 in 6.2 mi ENE 16.1 mph - N/A   Mostly Cloudy
5:20 AM 35.6 °F 25.2 °F 28.4 °F 75% 29.98 in 6.2 mi ENE 18.4 mph - N/A   Mostly Cloudy
5:50 AM 35.6 °F 25.9 °F 28.4 °F 75% 29.98 in 6.2 mi ENE 16.1 mph - N/A   Mostly Cloudy
6:20 AM 33.8 °F 23.9 °F 28.4 °F 81% 29.95 in 6.2 mi ENE 15.0 mph - N/A   Mostly Cloudy
6:47 AM 32.0 °F 20.8 °F 30.2 °F 93% 29.98 in 0.5 mi ENE 17.3 mph - N/A Snow Snow
6:50 AM 32.0 °F 20.8 °F 30.2 °F 93% 29.98 in 0.2 mi ENE 17.3 mph - N/A Snow Snow
7:05 AM 32.0 °F 20.8 °F 30.2 °F 93% 29.98 in 2.5 mi ENE 17.3 mph - N/A Snow Light Snow
7:20 AM 32.0 °F 20.8 °F 30.2 °F 93% 29.98 in 5.0 mi ENE 17.3 mph - N/A   Mostly Cloudy
7:50 AM 33.8 °F 23.5 °F 30.2 °F 87% 29.98 in 6.2 mi NE 16.1 mph - N/A   Mostly Cloudy
8:20 AM 35.6 °F 26.2 °F 28.4 °F 75% 29.98 in 6.2 mi ENE 15.0 mph - N/A   Mostly Cloudy
8:27 AM 35.6 °F 26.2 °F 28.4 °F 75% 29.98 in 6.2 mi ENE 15.0 mph - N/A Snow Light Snow
8:50 AM 35.6 °F 28.6 °F 30.2 °F 81% 29.98 in 4.3 mi ENE 9.2 mph - N/A Snow Light Snow
9:00 AM 35 °F - 30 °F 77%  in 12 mi ENE 9.2 mph - - Snow Light Snow
9:20 AM 32.0 °F 23.0 °F 32.0 °F 100% 30.01 in 1.6 mi East 11.5 mph - N/A Snow Snow
9:50 AM 32.0 °F 22.5 °F 32.0 °F 100% 29.98 in 1.7 mi NE 12.7 mph - N/A Snow Snow
10:20 AM 33.8 °F 26.4 °F 33.8 °F 100% 30.01 in 5.0 mi NE 9.2 mph - N/A Snow Light Snow
10:37 AM 35.6 °F 27.1 °F 35.6 °F 100% 29.98 in 6.2 mi ENE 12.7 mph - N/A   Mostly Cloudy
10:50 AM 39.2 °F 30.5 °F 32.0 °F 75% 29.98 in 6.2 mi ENE 16.1 mph - N/A   Mostly Cloudy
11:20 AM 39.2 °F 30.8 °F 30.2 °F 70% 29.98 in 6.2 mi ENE 15.0 mph - N/A   Mostly Cloudy
11:50 AM 39.2 °F 30.8 °F 30.2 °F 70% 29.98 in 6.2 mi ENE 15.0 mph - N/A   Mostly Cloudy
12:20 PM 37.4 °F 27.8 °F 30.2 °F 75% 29.98 in 6.2 mi ENE 17.3 mph - N/A   Mostly Cloudy
12:50 PM 35.6 °F 25.9 °F 32.0 °F 87% 29.98 in 5.0 mi East 16.1 mph - N/A Snow Light Snow
1:20 PM 35.6 °F 25.9 °F 32.0 °F 87% 29.98 in 5.0 mi East 16.1 mph - N/A Snow Light Snow
1:50 PM 37.4 °F 30.8 °F 30.2 °F 75% 29.98 in 6.2 mi ENE 9.2 mph - N/A   Mostly Cloudy
2:20 PM 37.4 °F 30.8 °F 30.2 °F 75% 30.01 in 6.2 mi East 9.2 mph - N/A   Mostly Cloudy
2:50 PM 37.4 °F 29.3 °F 30.2 °F 75% 30.01 in 6.2 mi East 12.7 mph - N/A   Mostly Cloudy
3:00 PM 38 °F - 30 °F 64%  in 12 mi East 12.7 mph - -   Partly Cloudy
3:20 PM 39.2 °F 33.0 °F 26.6 °F 61% 30.01 in 6.2 mi NE 9.2 mph - N/A   Mostly Cloudy
3:50 PM 39.2 °F 35.0 °F 32.0 °F 75% 30.04 in 6.2 mi WNW 5.8 mph - N/A   Mostly Cloudy
4:20 PM 37.4 °F 30.8 °F 32.0 °F 81% 30.04 in 6.2 mi WSW 9.2 mph - N/A Snow Light Snow
4:50 PM 37.4 °F - 30.2 °F 75% 30.04 in 4.3 mi Variable 2.3 mph - N/A Snow Light Snow
5:20 PM 35.6 °F 32.8 °F 32.0 °F 87% 30.04 in 4.3 mi SE 3.5 mph - N/A Snow Light Snow
5:31 PM 35.6 °F - 32.0 °F 87% 30.06 in 4.3 mi Variable 2.3 mph - N/A   Mostly Cloudy
5:43 PM 35.6 °F - 32.0 °F 87% 30.06 in 4.3 mi Variable 2.3 mph - N/A Snow Light Snow
5:50 PM 35.6 °F - 32.0 °F 87% 30.06 in 5.6 mi Variable 1.2 mph - N/A Snow Light Snow
6:15 PM 35.6 °F - 32.0 °F 87% 30.06 in 5.6 mi Variable 1.2 mph - N/A   Mostly Cloudy
6:20 PM 35.6 °F - 32.0 °F 87% 30.06 in 5.6 mi Variable 2.3 mph - N/A   Mostly Cloudy
6:50 PM 35.6 °F - 32.0 °F 87% 30.09 in 6.2 mi Variable 1.2 mph - N/A   Mostly Cloudy
7:20 PM 35.6 °F - 32.0 °F 87% 30.09 in 5.6 mi Calm Calm - N/A   Mostly Cloudy
7:50 PM 35.6 °F - 32.0 °F 87% 30.12 in 6.2 mi Calm Calm - N/A   Scattered Clouds
8:20 PM 33.8 °F 30.8 °F 32.0 °F 93% 30.12 in 6.2 mi SW 3.5 mph - N/A   Scattered Clouds
8:50 PM 33.8 °F - 32.0 °F 93% 30.12 in 6.2 mi Variable 2.3 mph - N/A   Scattered Clouds
9:00 PM 33 °F - 31 °F 92%  in 12 mi SW 2.3 mph - -   Partly Cloudy
9:20 PM 32.0 °F - 30.2 °F 93% 30.12 in 6.2 mi Variable 2.3 mph - N/A   Scattered Clouds
9:50 PM 32.0 °F - 30.2 °F 93% 30.15 in 6.2 mi NNW 1.2 mph - N/A   Scattered Clouds
10:20 PM 30.2 °F 26.7 °F 30.2 °F 100% 30.15 in 6.2 mi South 3.5 mph - N/A   Scattered Clouds
10:50 PM 30.2 °F - 28.4 °F 93% 30.15 in 6.2 mi Variable 2.3 mph - N/A   Scattered Clouds
11:20 PM 30.2 °F 26.7 °F 30.2 °F 100% 30.15 in 6.2 mi West 3.5 mph - N/A   Scattered Clouds
11:50 PM 30.2 °F 25.4 °F 26.6 °F 86% 30.15 in 6.2 mi West 4.6 mph - N/A   Partly Cloudy